�������l�o���
Date,Time,MP-1(��Sv/h),MP-2(��Sv/h),MP-3(��Sv/h),MP-4(��Sv/h),MP-5(��Sv/h),MP-6(��Sv/h),MP-7(��Sv/h),MP-8(��Sv/h),����,����(m/s),���J
2018/01/31,00:00,0.811,1.348,0.863,1.554,1.083,0.463,0.834,0.818,���k��,6.7,��
2018/01/31,00:10,0.812,1.349,0.864,1.555,1.083,0.462,0.833,0.816,��,6.4,��
2018/01/31,00:20,0.810,1.350,0.861,1.553,1.085,0.461,0.835,0.818,��,7.1,��
2018/01/31,00:30,0.812,1.351,0.861,1.553,1.084,0.462,0.834,0.819,��,6.4,��
2018/01/31,00:40,0.810,1.348,0.862,1.551,1.084,0.463,0.836,0.816,���k��,6.2,��
2018/01/31,00:50,0.812,1.349,0.861,1.551,1.085,0.464,0.835,0.818,��,6.5,��
2018/01/31,01:00,0.812,1.351,0.860,1.550,1.084,0.462,0.835,0.816,��,7.1,��
2018/01/31,01:10,0.811,1.347,0.861,1.555,1.084,0.461,0.834,0.818,��,8.0,��
2018/01/31,01:20,0.811,1.346,0.863,1.554,1.085,0.462,0.835,0.818,��,7.4,��
2018/01/31,01:30,0.811,1.349,0.861,1.556,1.084,0.461,0.835,0.817,��,7.1,��
2018/01/31,01:40,0.811,1.347,0.863,1.554,1.082,0.460,0.834,0.817,��,6.7,��
2018/01/31,01:50,0.813,1.349,0.863,1.552,1.086,0.462,0.834,0.818,��,5.8,��
2018/01/31,02:00,0.812,1.346,0.861,1.556,1.085,0.461,0.835,0.819,��,5.9,��
2018/01/31,02:10,0.812,1.346,0.862,1.555,1.083,0.461,0.835,0.817,��,6.0,��
2018/01/31,02:20,0.810,1.351,0.861,1.555,1.082,0.462,0.831,0.816,��,5.9,��
2018/01/31,02:30,0.812,1.348,0.862,1.554,1.082,0.462,0.833,0.817,���쐼,4.1,��
2018/01/31,02:40,0.811,1.349,0.862,1.554,1.082,0.463,0.834,0.818,���쐼,5.0,��
2018/01/31,02:50,0.811,1.348,0.861,1.554,1.083,0.460,0.833,0.817,���쐼,6.3,��
2018/01/31,03:00,0.812,1.346,0.859,1.556,1.083,0.460,0.834,0.816,���쐼,6.3,��
2018/01/31,03:10,0.811,1.348,0.861,1.555,1.082,0.462,0.833,0.816,���쐼,6.6,��
2018/01/31,03:20,0.809,1.349,0.860,1.554,1.081,0.460,0.836,0.818,���쐼,5.9,��
2018/01/31,03:30,0.809,1.347,0.860,1.554,1.082,0.461,0.834,0.817,���쐼,4.9,��
2018/01/31,03:40,0.812,1.349,0.861,1.553,1.083,0.460,0.834,0.818,���쐼,4.8,��
2018/01/31,03:50,0.808,1.346,0.861,1.554,1.083,0.462,0.832,0.816,���쐼,4.6,��
2018/01/31,04:00,0.811,1.347,0.861,1.555,1.083,0.461,0.834,0.817,��,5.3,��
2018/01/31,04:10,0.811,1.349,0.860,1.553,1.081,0.462,0.833,0.817,��,4.7,��
2018/01/31,04:20,0.810,1.347,0.862,1.554,1.085,0.461,0.835,0.817,��,4.9,��
2018/01/31,04:30,0.809,1.348,0.859,1.555,1.081,0.462,0.833,0.816,��,5.5,��
2018/01/31,04:40,0.809,1.344,0.863,1.557,1.082,0.461,0.832,0.817,���쐼,4.9,��
2018/01/31,04:50,0.810,1.348,0.860,1.554,1.080,0.463,0.833,0.818,��,4.8,��
2018/01/31,05:00,0.809,1.346,0.861,1.552,1.082,0.460,0.833,0.817,���쐼,3.7,��
2018/01/31,05:10,0.810,1.347,0.860,1.552,1.081,0.461,0.833,0.816,�쐼,2.8,��
2018/01/31,05:20,0.808,1.348,0.859,1.555,1.080,0.460,0.835,0.818,���쐼,3.0,��
2018/01/31,05:30,0.808,1.346,0.860,1.552,1.080,0.463,0.833,0.819,���쐼,4.0,��
2018/01/31,05:40,0.808,1.345,0.859,1.552,1.082,0.461,0.834,0.816,���쐼,4.8,��
2018/01/31,05:50,0.811,1.347,0.859,1.555,1.079,0.462,0.834,0.818,���쐼,5.7,��
2018/01/31,06:00,0.810,1.345,0.860,1.555,1.081,0.460,0.833,0.817,�쐼,6.6,��
2018/01/31,06:10,0.808,1.345,0.858,1.551,1.081,0.461,0.833,0.818,�쐼,6.7,��
2018/01/31,06:20,0.808,1.345,0.859,1.555,1.080,0.461,0.834,0.817,�쐼,6.2,��
2018/01/31,06:30,0.809,1.347,0.861,1.553,1.081,0.461,0.833,0.818,�쐼,6.6,��
2018/01/31,06:40,0.809,1.346,0.861,1.551,1.081,0.461,0.833,0.818,�쐼,7.2,��
2018/01/31,06:50,0.808,1.344,0.859,1.552,1.078,0.461,0.834,0.818,�쐼,7.5,��
2018/01/31,07:00,0.808,1.344,0.861,1.553,1.079,0.461,0.833,0.819,���쐼,7.8,��
2018/01/31,07:10,0.809,1.346,0.859,1.554,1.080,0.462,0.833,0.817,���쐼,6.3,��
2018/01/31,07:20,0.809,1.347,0.858,1.555,1.079,0.463,0.833,0.815,���쐼,5.7,��
2018/01/31,07:30,0.809,1.348,0.859,1.555,1.079,0.461,0.834,0.818,���쐼,6.2,��
2018/01/31,07:40,0.811,1.345,0.863,1.552,1.079,0.463,0.834,0.818,��,6.7,��
2018/01/31,07:50,0.810,1.347,0.861,1.555,1.081,0.462,0.834,0.817,��,5.6,��
2018/01/31,08:00,0.811,1.346,0.859,1.552,1.080,0.463,0.835,0.818,���쐼,5.3,��
2018/01/31,08:10,0.809,1.344,0.862,1.552,1.080,0.462,0.835,0.818,���쐼,4.6,��
2018/01/31,08:20,0.811,1.346,0.862,1.554,1.081,0.462,0.836,0.817,��,4.9,��
2018/01/31,08:30,0.811,1.346,0.859,1.554,1.080,0.460,0.835,0.818,��,4.1,��
2018/01/31,08:40,0.811,1.347,0.860,1.556,1.078,0.462,0.837,0.819,���쐼,4.4,��
2018/01/31,08:50,0.813,1.344,0.860,1.558,1.080,0.460,0.835,0.819,��,3.6,��
2018/01/31,09:00,0.812,1.347,0.862,1.554,1.080,0.463,0.838,0.818,���k��,2.6,��
2018/01/31,09:10,0.811,1.348,0.862,1.555,1.083,0.462,0.835,0.820,���k��,2.6,��
2018/01/31,09:20,0.815,1.346,0.862,1.556,1.081,0.462,0.836,0.819,��,2.5,��
2018/01/31,09:30,0.813,1.343,0.862,1.556,1.083,0.462,0.836,0.819,���쐼,3.0,��
2018/01/31,09:40,0.817,1.349,0.862,1.557,1.082,0.463,0.836,0.819,��쐼,3.3,��
2018/01/31,09:50,0.816,1.346,0.864,1.557,1.082,0.463,0.836,0.817,�쐼,4.7,��
2018/01/31,10:00,0.817,1.349,0.861,1.555,1.084,0.461,0.836,0.821,�쐼,7.8,��
2018/01/31,10:10,0.818,1.344,0.863,1.554,1.082,0.464,0.834,0.818,���쐼,4.8,��
2018/01/31,10:20,0.815,1.346,0.865,1.556,1.084,0.465,0.834,0.819,��,4.9,��
2018/01/31,10:30,0.819,1.350,0.864,1.557,1.084,0.464,0.833,0.819,���쐼,5.0,��
2018/01/31,10:40,0.819,1.346,0.864,1.557,1.085,0.462,0.834,0.819,���쐼,4.7,��
2018/01/31,10:50,0.820,1.348,0.865,1.557,1.084,0.463,0.835,0.819,���쐼,4.8,��
2018/01/31,11:00,0.818,1.349,0.866,1.560,1.089,0.465,0.835,0.820,��,2.9,��
2018/01/31,11:10,0.821,1.348,0.867,1.559,1.087,0.463,0.835,0.820,���k��,3.1,��
2018/01/31,11:20,0.822,1.346,0.867,1.561,1.089,0.463,0.835,0.820,��,4.9,��
2018/01/31,11:30,0.821,1.352,0.865,1.560,1.088,0.464,0.834,0.819,���쐼,4.0,��
2018/01/31,11:40,0.821,1.352,0.871,1.561,1.088,0.464,0.833,0.820,���쐼,5.7,��
2018/01/31,11:50,0.826,1.355,0.869,1.557,1.091,0.464,0.832,0.820,�쐼,4.4,��
2018/01/31,12:00,0.825,1.357,0.871,1.560,1.093,0.463,0.834,0.820,�쐼,6.1,��
2018/01/31,12:10,0.827,1.361,0.867,1.560,1.093,0.465,0.837,0.820,��쐼,5.3,��
2018/01/31,12:20,0.826,1.360,0.870,1.564,1.096,0.465,0.837,0.821,�쐼,5.2,��
2018/01/31,12:30,0.825,1.360,0.871,1.562,1.095,0.465,0.835,0.820,���쐼,6.2,��
2018/01/31,12:40,0.829,1.360,0.871,1.560,1.095,0.466,0.837,0.821,�쐼,5.9,��
2018/01/31,12:50,0.831,1.361,0.870,1.562,1.096,0.465,0.836,0.821,�쐼,6.4,��
2018/01/31,13:00,0.831,1.360,0.870,1.564,1.096,0.466,0.837,0.820,�쐼,6.4,��
2018/01/31,13:10,0.829,1.362,0.871,1.566,1.096,0.467,0.837,0.821,�쐼,5.4,��
2018/01/31,13:20,0.829,1.363,0.873,1.564,1.096,0.466,0.837,0.821,��쐼,7.5,��
2018/01/31,13:30,0.828,1.362,0.872,1.566,1.099,0.468,0.839,0.820,�쐼,7.2,��
2018/01/31,13:40,0.830,1.365,0.873,1.566,1.098,0.468,0.837,0.819,�쐼,5.7,��
2018/01/31,13:50,0.830,1.365,0.874,1.566,1.098,0.469,0.837,0.820,�쐼,5.1,��
2018/01/31,14:00,0.832,1.365,0.874,1.566,1.100,0.467,0.838,0.818,��,3.9,��
2018/01/31,14:10,0.831,1.366,0.873,1.566,1.103,0.469,0.838,0.820,��쓌,4.0,��
2018/01/31,14:20,0.834,1.369,0.873,1.569,1.103,0.469,0.839,0.822,�쓌,4.5,��
2018/01/31,14:30,0.832,1.369,0.875,1.568,1.106,0.469,0.840,0.820,��쓌,4.1,��
2018/01/31,14:40,0.832,1.368,0.875,1.568,1.106,0.468,0.839,0.822,��쓌,5.8,��
2018/01/31,14:50,0.832,1.369,0.874,1.569,1.104,0.468,0.841,0.822,��쓌,4.7,��
2018/01/31,15:00,0.834,1.370,0.876,1.570,1.106,0.468,0.839,0.821,��쓌,5.3,��
2018/01/31,15:10,0.834,1.371,0.874,1.571,1.105,0.468,0.838,0.822,��쓌,3.9,��
2018/01/31,15:20,0.835,1.372,0.874,1.571,1.106,0.469,0.840,0.823,��쓌,3.4,��
2018/01/31,15:30,0.836,1.374,0.875,1.573,1.108,0.469,0.841,0.821,��쓌,4.2,��
2018/01/31,15:40,0.836,1.376,0.875,1.573,1.108,0.468,0.843,0.823,��쓌,4.0,��
2018/01/31,15:50,0.833,1.376,0.875,1.573,1.108,0.470,0.842,0.821,��쓌,3.5,��
2018/01/31,16:00,0.835,1.376,0.875,1.572,1.107,0.469,0.841,0.822,��쓌,3.1,��
2018/01/31,16:10,0.836,1.374,0.875,1.571,1.107,0.469,0.842,0.822,��,2.0,��
2018/01/31,16:20,0.832,1.376,0.874,1.573,1.108,0.469,0.840,0.823,��,3.1,��
2018/01/31,16:30,0.833,1.377,0.876,1.577,1.109,0.470,0.842,0.821,��,2.0,��
2018/01/31,16:40,0.832,1.379,0.875,1.574,1.110,0.470,0.840,0.821,��쓌,1.5,��
2018/01/31,16:50,0.834,1.377,0.873,1.575,1.108,0.471,0.840,0.820,��,1.2,��
2018/01/31,17:00,0.835,1.377,0.875,1.576,1.109,0.468,0.839,0.820,���k��,3.4,��
2018/01/31,17:10,0.830,1.376,0.874,1.576,1.110,0.471,0.840,0.821,���k��,3.3,��
2018/01/31,17:20,0.831,1.378,0.875,1.572,1.108,0.469,0.840,0.821,��,2.8,��
2018/01/31,17:30,0.834,1.380,0.876,1.573,1.109,0.469,0.840,0.820,���쐼,3.2,��
2018/01/31,17:40,0.833,1.378,0.876,1.573,1.107,0.469,0.839,0.820,�쐼,2.0,��
2018/01/31,17:50,0.832,1.380,0.873,1.576,1.106,0.470,0.839,0.819,�쐼,1.9,��
2018/01/31,18:00,0.833,1.378,0.874,1.572,1.108,0.469,0.840,0.819,���쐼,2.5,��
2018/01/31,18:10,0.833,1.379,0.874,1.573,1.109,0.468,0.838,0.820,�쐼,2.0,��
2018/01/31,18:20,0.833,1.379,0.875,1.575,1.109,0.469,0.839,0.822,�쐼,2.9,��
2018/01/31,18:30,0.833,1.378,0.877,1.572,1.108,0.469,0.839,0.821,�쐼,2.6,��
2018/01/31,18:40,0.834,1.380,0.876,1.574,1.107,0.470,0.839,0.821,�쐼,2.3,��
2018/01/31,18:50,0.833,1.378,0.874,1.573,1.108,0.470,0.839,0.820,���쐼,5.0,��
2018/01/31,19:00,0.834,1.378,0.874,1.573,1.109,0.468,0.837,0.821,���쐼,5.0,��
2018/01/31,19:10,0.834,1.378,0.875,1.575,1.112,0.468,0.839,0.820,���쐼,6.0,��
2018/01/31,19:20,0.834,1.377,0.874,1.574,1.111,0.469,0.839,0.820,���쐼,6.4,��
2018/01/31,19:30,0.832,1.378,0.874,1.576,1.105,0.468,0.839,0.820,��,5.1,��
2018/01/31,19:40,0.833,1.378,0.874,1.581,1.109,0.468,0.839,0.821,��,5.7,��
2018/01/31,19:50,0.834,1.378,0.874,1.579,1.110,0.470,0.840,0.820,��,6.0,��
2018/01/31,20:00,0.835,1.378,0.876,1.575,1.108,0.468,0.838,0.820,���k��,5.3,��
2018/01/31,20:10,0.835,1.377,0.875,1.577,1.112,0.469,0.838,0.821,���k��,5.5,��
2018/01/31,20:20,0.833,1.381,0.873,1.578,1.108,0.469,0.839,0.821,�k��,5.8,��
2018/01/31,20:30,0.834,1.378,0.875,1.577,1.106,0.468,0.838,0.820,�k��,8.1,��
2018/01/31,20:40,0.834,1.380,0.874,1.580,1.108,0.470,0.841,0.819,���k��,7.5,��
2018/01/31,20:50,0.835,1.379,0.875,1.576,1.110,0.469,0.840,0.821,���k��,8.4,��
2018/01/31,21:00,0.834,1.380,0.877,1.579,1.111,0.467,0.839,0.818,���k��,9.7,��
2018/01/31,21:10,0.834,1.377,0.875,1.577,1.110,0.469,0.842,0.820,���k��,9.0,��
2018/01/31,21:20,0.835,1.380,0.875,1.578,1.110,0.468,0.840,0.820,���k��,8.7,��
2018/01/31,21:30,0.833,1.379,0.873,1.578,1.110,0.469,0.841,0.821,���k��,8.7,��
2018/01/31,21:40,0.834,1.378,0.873,1.580,1.110,0.468,0.839,0.822,���k��,7.4,��
2018/01/31,21:50,0.832,1.378,0.875,1.576,1.109,0.469,0.841,0.819,�k��,5.4,��
2018/01/31,22:00,0.832,1.378,0.875,1.577,1.108,0.467,0.841,0.822,�k��,6.9,��
2018/01/31,22:10,0.833,1.377,0.876,1.579,1.109,0.469,0.840,0.821,�k��,6.4,��
2018/01/31,22:20,0.833,1.378,0.875,1.578,1.110,0.467,0.840,0.820,�k��,7.2,��
2018/01/31,22:30,0.833,1.379,0.875,1.580,1.112,0.469,0.839,0.822,�k��,6.7,��
2018/01/31,22:40,0.832,1.380,0.875,1.578,1.110,0.469,0.840,0.818,�k�k��,5.5,��
2018/01/31,22:50,0.832,1.380,0.875,1.578,1.109,0.468,0.839,0.821,�k�k��,5.0,��
2018/01/31,23:00,0.832,1.379,0.875,1.577,1.109,0.468,0.840,0.822,�k��,6.9,��
2018/01/31,23:10,0.833,1.379,0.875,1.578,1.108,0.467,0.840,0.822,�k�k��,7.6,��
2018/01/31,23:20,0.833,1.381,0.875,1.579,1.108,0.468,0.840,0.822,�k�k��,7.8,��
2018/01/31,23:30,0.831,1.380,0.875,1.581,1.110,0.468,0.840,0.819,�k�k��,6.8,��
2018/01/31,23:40,0.831,1.379,0.875,1.578,1.110,0.468,0.841,0.820,�k,3.8,��
2018/01/31,23:50,0.833,1.377,0.873,1.577,1.107,0.467,0.840,0.820,�k�k��,3.2,��
